Hourly Data Report for October 27, 2016

All times are specified in Local Standard Time (LST). Add 1 hour to adjust for Daylight Saving Time where and when it is observed.

MONCTON INTL A
NEW BRUNSWICK

46°06'44.000" N
64°40'43.000" W
70.70 m
8103201
71705
YQM

Download Data

Hourly Data (October 2016)
Hourly Data Report for October 27, 2016
Temp Definition
°C
Dew Point Temp Definition
°C
Rel Hum Definition
%
Wind Dir Definition
10's deg

Wind Spd Definition
km/h
Visibility Definition
km
Stn Press Definition
kPa
Hmdx Definition


Wind Chill Definition


Weather Definition


TIME
00:00 Legend Double Dagger 3.8 1.5 85 1 20 24.1 101.86     LegendNANA
01:00 Legend Double Dagger 3.6 1.2 84 1 23 24.1 101.94     LegendNANA
02:00 Legend Double Dagger 3.5 0.7 82 1 17 24.1 102.00     Mostly Cloudy
03:00 Legend Double Dagger 3.2 0.1 80 1 21 24.1 102.03     LegendNANA
04:00 Legend Double Dagger 2.2 0.3 87 35 11 24.1 102.07     LegendNANA
05:00 Legend Double Dagger 2.3 1.0 91 34 13 24.1 102.11     Mostly Cloudy
06:00 Legend Double Dagger 2.0 0.8 92 34 22 24.1 102.17     LegendNANA
07:00 Legend Double Dagger 1.5 0.6 94 33 18 24.1 102.24     LegendNANA
08:00 Legend Double Dagger 1.6 0.9 95 33 20 24.1 102.31     Mostly Cloudy
09:00 Legend Double Dagger 2.1 1.2 94 33 19 24.1 102.36     LegendNANA
10:00 Legend Double Dagger 3.1 1.8 91 33 20 24.1 102.41     LegendNANA
11:00 Legend Double Dagger 3.5 1.7 88 33 18 24.1 102.41     Mostly Cloudy
12:00 Legend Double Dagger 4.2 1.7 84 35 23 24.1 102.40     LegendNANA
13:00 Legend Double Dagger 4.4 1.1 79 36 22 24.1 102.38     LegendNANA
14:00 Legend Double Dagger 4.0 0.5 78 36 18 24.1 102.38     Cloudy
15:00 Legend Double Dagger 4.2 -0.2 73 2 16 24.1 102.38     LegendNANA
16:00 Legend Double Dagger 4.0 -0.8 71 36 12 24.1 102.37     LegendNANA
17:00 Legend Double Dagger 2.6 -1.4 75 2 10 24.1 102.36     Mostly Cloudy
18:00 Legend Double Dagger 1.8 -1.6 78 3 8 24.1 102.41     LegendNANA
19:00 Legend Double Dagger 0.3 -2.6 81 4 9 24.1 102.45     LegendNANA
20:00 Legend Double Dagger 0.5 -3.3 76 36 6 24.1 102.45     Mainly Clear
21:00 Legend Double Dagger 1.1 -3.0 74 32 6 24.1 102.46     LegendNANA
22:00 Legend Double Dagger 1.0 -2.9 75 31 5 24.1 102.46     LegendNANA
23:00 Legend Double Dagger 0.3 -1.6 87 5 7 24.1 102.45     Mostly Cloudy

Notes on Data Quality.

Legend

  • E = Estimated
  • M = Missing
  • NA = Not Available
  • ‡ = Partner data that is not subject to review by the National Climate Archives
Date modified: